Previsão horária em Jubbada Hoose

Hoje, 24 Junho, Quinta-feira

Tempo Temperatura Precipitação Vento Pressão Humidade
00:00 +26°C° 0 mm 4 m/s 758 mmHg 81%
01:00 +25°C° 0 mm 4 m/s 758 mmHg 83%
02:00 +25°C° 0 mm 4 m/s 757 mmHg 84%
03:00 +25°C° 0 mm 3 m/s 757 mmHg 85%
04:00 +25°C° 0 mm 3 m/s 758 mmHg 86%
05:00 +24°C° 0 mm 3 m/s 758 mmHg 88%
06:00 +24°C° 0 mm 2 m/s 758 mmHg 90%
07:00 +26°C° 0 mm 4 m/s 759 mmHg 80%
08:00 +28°C° 0 mm 5 m/s 759 mmHg 70%
09:00 +29°C° 0 mm 6 m/s 759 mmHg 61%
10:00 +32°C° 0 mm 6 m/s 759 mmHg 52%
11:00 +34°C° 0 mm 6 m/s 758 mmHg 44%
12:00 +35°C° 0 mm 6 m/s 758 mmHg 36%
13:00 +36°C° 0 mm 6 m/s 757 mmHg 34%
14:00 +36°C° 0 mm 6 m/s 756 mmHg 31%
15:00 +36°C° 0 mm 6 m/s 756 mmHg 29%
16:00 +35°C° 0 mm 6 m/s 756 mmHg 35%
17:00 +33°C° 0 mm 7 m/s 756 mmHg 40%
18:00 +32°C° 0 mm 7 m/s 756 mmHg 45%
19:00 +30°C° 0 mm 6 m/s 757 mmHg 51%
20:00 +28°C° 0 mm 6 m/s 757 mmHg 57%
21:00 +27°C° 0 mm 5 m/s 758 mmHg 62%
22:00 +26°C° 0 mm 5 m/s 758 mmHg 68%
23:00 +26°C° 0 mm 4 m/s 758 mmHg 74%

Amanhã, 25 Junho, Sexta-feira

Tempo Temperatura Precipitação Vento Pressão Humidade
00:00 +25°C° 0 mm 4 m/s 758 mmHg 79%
01:00 +25°C° 0 mm 4 m/s 758 mmHg 81%
02:00 +25°C° 0 mm 3 m/s 757 mmHg 83%
03:00 +24°C° 0 mm 3 m/s 757 mmHg 85%
04:00 +24°C° 0 mm 3 m/s 757 mmHg 86%
05:00 +24°C° 0 mm 3 m/s 758 mmHg 87%
06:00 +24°C° 0 mm 3 m/s 758 mmHg 89%
07:00 +26°C° 0 mm 4 m/s 758 mmHg 78%
08:00 +27°C° 0 mm 5 m/s 759 mmHg 68%
09:00 +29°C° 0 mm 6 m/s 759 mmHg 57%
10:00 +30°C° 0 mm 6 m/s 759 mmHg 54%
11:00 +32°C° 0 mm 6 m/s 758 mmHg 50%
12:00 +33°C° 0 mm 5 m/s 758 mmHg 46%
13:00 +34°C° 0 mm 5 m/s 757 mmHg 42%
14:00 +35°C° 0 mm 5 m/s 756 mmHg 37%
15:00 +36°C° 0 mm 5 m/s 755 mmHg 33%
16:00 +34°C° 0 mm 6 m/s 755 mmHg 36%
17:00 +33°C° 0 mm 6 m/s 755 mmHg 39%
18:00 +32°C° 0 mm 7 m/s 756 mmHg 42%
19:00 +30°C° 0 mm 6 m/s 756 mmHg 49%
20:00 +28°C° 0 mm 6 m/s 757 mmHg 57%
21:00 +27°C° 0 mm 5 m/s 757 mmHg 65%
22:00 +26°C° 0 mm 5 m/s 757 mmHg 68%
23:00 +26°C° 0 mm 5 m/s 757 mmHg 72%

Depois de amanhã, 26 Junho, Sábado

Tempo Temperatura Precipitação Vento Pressão Humidade
00:00 +25°C° 0 mm 4 m/s 757 mmHg 75%
01:00 +25°C° 0 mm 4 m/s 757 mmHg 78%
02:00 +24°C° 0 mm 3 m/s 757 mmHg 81%
03:00 +24°C° 0 mm 3 m/s 756 mmHg 84%
04:00 +24°C° 0 mm 3 m/s 756 mmHg 86%
05:00 +23°C° 0 mm 2 m/s 757 mmHg 88%
06:00 +23°C° 0 mm 2 m/s 757 mmHg 89%
07:00 +25°C° 0 mm 3 m/s 757 mmHg 80%
08:00 +27°C° 0 mm 4 m/s 758 mmHg 70%
09:00 +29°C° 0 mm 5 m/s 758 mmHg 60%
10:00 +32°C° 0 mm 5 m/s 758 mmHg 51%
11:00 +34°C° 0 mm 5 m/s 757 mmHg 43%
12:00 +35°C° 0 mm 5 m/s 756 mmHg 34%
13:00 +36°C° 0 mm 6 m/s 756 mmHg 32%
14:00 +36°C° 0 mm 6 m/s 755 mmHg 31%
15:00 +38°C° 0 mm 6 m/s 754 mmHg 30%
16:00 +36°C° 0 mm 6 m/s 754 mmHg 32%
17:00 +34°C° 0 mm 7 m/s 754 mmHg 35%
18:00 +33°C° 0 mm 7 m/s 754 mmHg 38%
19:00 +30°C° 0 mm 7 m/s 755 mmHg 47%
20:00 +29°C° 0 mm 7 m/s 756 mmHg 56%
21:00 +27°C° 0 mm 6 m/s 756 mmHg 65%
22:00 +26°C° 0 mm 6 m/s 756 mmHg 70%
23:00 +26°C° 0 mm 5 m/s 757 mmHg 76%

27 Junho, Domingo

Tempo Temperatura Precipitação Vento Pressão Humidade
00:00 +25°C° 0 mm 4 m/s 757 mmHg 81%
01:00 +25°C° 0 mm 4 m/s 756 mmHg 84%
02:00 +24°C° 0 mm 3 m/s 756 mmHg 87%
03:00 +24°C° 0 mm 3 m/s 756 mmHg 90%
04:00 +24°C° 0 mm 2 m/s 756 mmHg 91%
05:00 +24°C° 0 mm 2 m/s 757 mmHg 92%
06:00 +23°C° 0 mm 2 m/s 757 mmHg 94%
07:00 +25°C° 0 mm 3 m/s 757 mmHg 83%
08:00 +27°C° 0 mm 4 m/s 758 mmHg 72%
09:00 +29°C° 0 mm 5 m/s 758 mmHg 61%
10:00 +33°C° 0 mm 5 m/s 758 mmHg 52%
11:00 +35°C° 0 mm 5 m/s 757 mmHg 43%
12:00 +38°C° 0 mm 6 m/s 756 mmHg 34%
13:00 +36°C° 0 mm 6 m/s 756 mmHg 34%
14:00 +36°C° 0 mm 6 m/s 755 mmHg 34%
15:00 +35°C° 0 mm 6 m/s 755 mmHg 35%
16:00 +34°C° 0 mm 6 m/s 755 mmHg 37%
17:00 +34°C° 0 mm 6 m/s 755 mmHg 39%
18:00 +33°C° 0 mm 6 m/s 756 mmHg 42%
19:00 +30°C° 0 mm 6 m/s 756 mmHg 52%
20:00 +28°C° 0 mm 6 m/s 757 mmHg 62%
21:00 +27°C° 0 mm 5 m/s 757 mmHg 73%
22:00 +26°C° 0 mm 5 m/s 757 mmHg 76%
23:00 +26°C° 0 mm 4 m/s 757 mmHg 80%

28 Junho, Segunda-feira

Tempo Temperatura Precipitação Vento Pressão Humidade
00:00 +25°C° 0 mm 4 m/s 757 mmHg 84%
01:00 +25°C° 0 mm 4 m/s 757 mmHg 86%
02:00 +24°C° 0 mm 3 m/s 757 mmHg 89%
03:00 +24°C° 0 mm 3 m/s 757 mmHg 91%
04:00 +24°C° 0 mm 3 m/s 757 mmHg 92%
05:00 +24°C° 0 mm 2 m/s 757 mmHg 93%
06:00 +24°C° 0 mm 2 m/s 757 mmHg 94%
07:00 +26°C° 0 mm 3 m/s 758 mmHg 84%
08:00 +28°C° 0 mm 4 m/s 758 mmHg 73%
09:00 +30°C° 0 mm 5 m/s 758 mmHg 63%
10:00 +32°C° 0 mm 5 m/s 758 mmHg 55%
11:00 +34°C° 0 mm 5 m/s 758 mmHg 47%
12:00 +35°C° 0 mm 5 m/s 757 mmHg 39%
13:00 +35°C° 0 mm 5 m/s 757 mmHg 38%
14:00 +35°C° 0 mm 5 m/s 756 mmHg 38%
15:00 +35°C° 0 mm 4 m/s 755 mmHg 37%
16:00 +34°C° 0 mm 5 m/s 756 mmHg 39%
17:00 +33°C° 0 mm 5 m/s 756 mmHg 41%
18:00 +33°C° 0 mm 5 m/s 756 mmHg 43%
19:00 +30°C° 0 mm 5 m/s 756 mmHg 53%
20:00 +29°C° 0 mm 5 m/s 757 mmHg 63%
21:00 +27°C° 0 mm 5 m/s 758 mmHg 73%
22:00 +26°C° 0 mm 4 m/s 758 mmHg 76%
23:00 +26°C° 0 mm 4 m/s 758 mmHg 80%

29 Junho, Terça-feira

Tempo Temperatura Precipitação Vento Pressão Humidade
00:00 +25°C° 0 mm 3 m/s 758 mmHg 84%
01:00 +25°C° 0 mm 3 m/s 758 mmHg 86%
02:00 +24°C° 0 mm 3 m/s 757 mmHg 89%
03:00 +24°C° 0 mm 2 m/s 757 mmHg 91%
04:00 +24°C° 0 mm 2 m/s 757 mmHg 92%
05:00 +24°C° 0 mm 2 m/s 757 mmHg 94%
06:00 +23°C° 0 mm 2 m/s 757 mmHg 95%
07:00 +25°C° 0 mm 3 m/s 758 mmHg 85%
08:00 +27°C° 0 mm 4 m/s 758 mmHg 75%
09:00 +29°C° 0 mm 5 m/s 758 mmHg 64%
10:00 +32°C° 0 mm 5 m/s 758 mmHg 57%
11:00 +33°C° 0 mm 5 m/s 758 mmHg 49%
12:00 +35°C° 0 mm 5 m/s 757 mmHg 41%
13:00 +35°C° 0 mm 5 m/s 757 mmHg 42%
14:00 +34°C° 0 mm 5 m/s 756 mmHg 43%
15:00 +34°C° 0 mm 5 m/s 756 mmHg 44%
16:00 +33°C° 0 mm 4 m/s 756 mmHg 45%
17:00 +33°C° 0 mm 4 m/s 756 mmHg 46%
18:00 +32°C° 0 mm 4 m/s 756 mmHg 47%
19:00 +30°C° 0 mm 4 m/s 757 mmHg 53%
20:00 +29°C° 0 mm 5 m/s 757 mmHg 59%
21:00 +28°C° 0 mm 5 m/s 758 mmHg 65%
22:00 +27°C° 0 mm 5 m/s 758 mmHg 68%
23:00 +26°C° 0 mm 5 m/s 758 mmHg 72%
Mostrar mais

Necessitamos do seu Consentimento

A Meteoprog e os seus Fornecedores de Serviços podem armazenar e aceder a dados pessoais como cookies, identificadores do dispositivo ou outras tecnologias semelhantes existentes no seu dispositivo e processar estes dados para personalizar conteúdos e anúncios, assim como funcionalidades nas redes sociais e análise de tráfego.

  • Armazenar e/ou aceder a informações no seu dispositivo

    Os cookies, identificadores do dispositivo ou outras informações podem ser armazenados ou acedidos no seu dispositivo, para os fins acima indicados.

  • Anúncios e conteúdos personalizados, medição de anúncios e conteúdos, dados sobre o público-alvo e desenvolvimento de produtos

    Os anúncios e os conteúdos podem ser personalizados com base num perfil. Podem ser adicionados dados adicionais para uma maior personalização dos anúncios e dos conteúdos. A eficácia dos anúncios e dos conteúdos pode ser medida. Podem ser obtidas informações sobre o público que visualizou os anúncios e os conteúdos. Estes dados podem ser usados para desenvolver ou melhorar sistemas, softwares ou a experiência do utilizador.

Ao clicar em "Eu concordo”, permitirá o uso de cookies, identificadores do dispositivo e web beacons mencionados ou outras tecnologias semelhantes. As configurações do navegador do seu dispositivo podem ser alteradas.

Para certos fins, podem ser invocados interesses legítimos ao invés de consentimento. Pode ler mais informação sobre este assunto na nossa Política de Privacidade e Cookies.